Weather in Ushbulak

Kazakhstan     41°54′29″N   69°33′55″E
temp.,
°C
wind,
m/s
gust,
m/s
humid.,
%
clouds,
%
prec.,
mm/h
press.,
hPa
HPBL,
m
16 may, sun
sun1600:00+14ese22710 0.0 101111
03:00+13ese22750 0.0 101111
06:00+13ese22690 0.0 101111
09:00+20ssw11530 0.0 1012212
12:00+23wnw22390 0.0 10131390
15:00+25n32390 0.0 10121803
18:00+23nne44490 0.0 1012762
21:00+16ene33530 0.0 101229
17 may, mon
mon1700:00+16ese32610 0.0 101215
03:00+15ese33590 0.0 101218
06:00+14ese32470 0.0 101316
09:00+22ese22440 0.0 1013139
12:00+26w22270 0.0 10131442
15:00+27nnw22250 0.0 10122781
18:00+25ne57450 0.0 1012362
21:00+18e33440 0.0 101228
18 may, tue
tue1800:00+17ese33430 0.0 101115
03:00+16ese33390 0.0 101019
06:00+16ese33310 0.0 101023
09:00+24se223716 0.0 1009120
12:00+28wnw23245 0.0 10092014
15:00+29sw13205 0.0 10083767
18:00+29ssw13255 0.0 10073719
21:00+20e33395 0.0 100817
19 may, wed
wed1900:00+18ese33330 0.0 100819
03:00+18ese33335 0.0 100720
06:00+18ese33280 0.0 100723
09:00+23e014123 0.1 1007137
12:00+28ssw57260 0.1 10061543
15:00+29sw610195 0.0 10054208
18:00+28sw133399 0.0 10051414
21:00+20se22375 0.0 100611
20 may, thu
thu2000:00+18se32290 0.0 100717
03:00+17se32280 0.0 100715
06:00+17se32245 0.0 100816
09:00+24sse22325 0.0 1008119
12:00+28sw452099 0.0 10083337
15:00+29wsw3419100 0.0 10083704
18:00+27nw1134100 0.0 100814
21:00+21se2233100 0.0 100911